| time (UTC) | temp F | wind direction | speed MPH | gust MPH | rain 1hr in | rain 24hr in | rain mn in | humidity % | barometer mb |
| 20260903054854 | 84 | 0 | 0.0 | 0.0 | 0.00 | 0.00 | 0.00 | 88 | 1010.1 |
| 20260903053953 | 84 | 188 | 1.0 | 9.0 | 0.00 | 0.00 | 0.00 | 88 | 1010.1 |
| 20260903053054 | 84 | 0 | 0.0 | 0.0 | 0.00 | 0.00 | 0.00 | 88 | 1010.0 |
| 20260903052153 | 85 | 201 | 1.0 | 7.0 | 0.00 | 0.00 | 0.00 | 88 | 1010.0 |
| 20260903044554 | 85 | 0 | 0.0 | 0.0 | 0.00 | 0.00 | 0.00 | 87 | 1010.1 |
| 20260903043653 | 85 | 166 | 1.0 | 10.0 | 0.00 | 0.00 | 0.00 | 87 | 1010.1 |
| 20260903041853 | 85 | 167 | 0.0 | 6.0 | 0.00 | 0.00 | 0.00 | 87 | 1010.1 |
| 20260903040953 | 85 | 168 | 0.0 | 6.0 | 0.00 | 0.00 | 0.00 | 87 | 1010.1 |
| 20260903035154 | 85 | 126 | 0.0 | 6.0 | 0.00 | 0.00 | 0.00 | 87 | 1010.0 |
| 20260903034254 | 85 | 160 | 0.0 | 7.0 | 0.00 | 0.00 | 0.00 | 87 | 1009.9 |
| 20260903032453 | 86 | 176 | 1.0 | 9.0 | 0.00 | 0.00 | 0.00 | 87 | 1009.7 |
| 20260903031553 | 86 | 185 | 1.0 | 11.0 | 0.00 | 0.00 | 0.00 | 87 | 1009.6 |
| 20260903030653 | 86 | 186 | 1.0 | 9.0 | 0.00 | 0.00 | 0.00 | 87 | 1009.6 |
| 20260903025753 | 86 | 157 | 2.0 | 9.0 | 0.00 | 0.00 | 0.00 | 86 | 1009.4 |
| 20260903024853 | 86 | 195 | 0.0 | 7.0 | 0.00 | 0.00 | 0.00 | 86 | 1009.5 |
| 20260903023953 | 86 | 163 | 0.0 | 7.0 | 0.00 | 0.00 | 0.00 | 86 | 1009.5 |
| 20260903023054 | 86 | 207 | 0.0 | 5.0 | 0.00 | 0.00 | 0.00 | 86 | 1009.0 |
| 20260903021254 | 86 | 172 | 1.0 | 7.0 | 0.00 | 0.00 | 0.00 | 84 | 1008.7 |
| 20260903020354 | 87 | 162 | 1.0 | 6.0 | 0.00 | 0.00 | 0.00 | 83 | 1008.6 |
| 20260903014553 | 87 | 198 | 3.0 | 13.0 | 0.00 | 0.00 | 0.00 | 80 | 1008.6 |
| 20260903013654 | 87 | 184 | 4.0 | 18.0 | 0.00 | 0.00 | 0.00 | 79 | 1008.6 |
| 20260903012754 | 88 | 179 | 5.0 | 13.0 | 0.00 | 0.00 | 0.00 | 78 | 1008.5 |
| 20260903010953 | 88 | 171 | 4.0 | 16.0 | 0.00 | 0.00 | 0.00 | 75 | 1008.0 |
| 20260903010053 | 89 | 179 | 7.0 | 19.0 | 0.00 | 0.00 | 0.00 | 73 | 1007.9 |
| 20260903005153 | 89 | 182 | 4.0 | 19.0 | 0.00 | 0.00 | 0.00 | 71 | 1007.9 |
| 20260903004254 | 89 | 181 | 6.0 | 14.0 | 0.00 | 0.00 | 0.00 | 69 | 1007.9 |
| 20260903003353 | 90 | 184 | 6.0 | 20.0 | 0.00 | 0.00 | 0.00 | 68 | 1007.7 |
| 20260903002453 | 90 | 182 | 5.0 | 16.0 | 0.00 | 0.00 | 0.00 | 66 | 1007.7 |
| 20260903001553 | 90 | 179 | 5.0 | 16.0 | 0.00 | 0.00 | 0.00 | 66 | 1007.4 |
| 20260903000653 | 91 | 178 | 6.0 | 18.0 | 0.00 | 0.00 | 0.00 | 65 | 1007.4 |
| 20260902234853 | 91 | 183 | 5.0 | 17.0 | 0.00 | 0.00 | 0.00 | 66 | 1007.1 |
| 20260902233953 | 92 | 183 | 6.0 | 17.0 | 0.00 | 0.00 | 0.00 | 65 | 1007.1 |
| 20260902232153 | 93 | 175 | 4.0 | 13.0 | 0.00 | 0.00 | 0.00 | 65 | 1007.1 |
| 20260902231253 | 93 | 181 | 4.0 | 14.0 | 0.00 | 0.00 | 0.00 | 66 | 1007.0 |
| 20260902230353 | 93 | 183 | 3.0 | 13.0 | 0.00 | 0.00 | 0.00 | 65 | 1007.0 |
| 20260902225453 | 94 | 179 | 3.0 | 13.0 | 0.00 | 0.00 | 0.00 | 65 | 1007.0 |
| 20260902224554 | 94 | 191 | 5.0 | 18.0 | 0.00 | 0.00 | 0.00 | 64 | 1007.1 |
| 20260902223653 | 94 | 193 | 2.0 | 17.0 | 0.00 | 0.00 | 0.00 | 66 | 1007.1 |
| 20260902222753 | 94 | 192 | 3.0 | 16.0 | 0.00 | 0.00 | 0.00 | 65 | 1007.1 |
| 20260902221853 | 94 | 177 | 2.0 | 10.0 | 0.00 | 0.00 | 0.00 | 65 | 1007.1 |
| 20260902220954 | 94 | 184 | 3.0 | 14.0 | 0.00 | 0.00 | 0.00 | 65 | 1007.1 |
| 20260902220053 | 95 | 181 | 2.0 | 11.0 | 0.00 | 0.00 | 0.00 | 64 | 1007.2 |
| 20260902215153 | 95 | 176 | 2.0 | 11.0 | 0.00 | 0.00 | 0.00 | 63 | 1007.2 |
| 20260902214253 | 95 | 186 | 3.0 | 14.0 | 0.00 | 0.00 | 0.00 | 63 | 1007.4 |
| 20260902213353 | 95 | 182 | 1.0 | 10.0 | 0.00 | 0.00 | 0.00 | 64 | 1007.4 |
| 20260902212453 | 95 | 194 | 2.0 | 11.0 | 0.00 | 0.00 | 0.00 | 63 | 1007.4 |
| 20260902211553 | 96 | 194 | 2.0 | 7.0 | 0.00 | 0.00 | 0.00 | 63 | 1007.5 |
| 20260902210653 | 96 | 200 | 2.0 | 14.0 | 0.00 | 0.00 | 0.00 | 62 | 1007.5 |
| 20260902205753 | 97 | 197 | 3.0 | 13.0 | 0.00 | 0.00 | 0.00 | 63 | 1007.6 |
| 20260902204853 | 96 | 186 | 1.0 | 12.0 | 0.00 | 0.00 | 0.00 | 65 | 1007.9 |
| 20260902203953 | 96 | 184 | 2.0 | 11.0 | 0.00 | 0.00 | 0.00 | 64 | 1007.9 |
| 20260902202153 | 97 | 201 | 3.0 | 12.0 | 0.00 | 0.00 | 0.00 | 63 | 1008.0 |
| 20260902201253 | 96 | 195 | 2.0 | 10.0 | 0.00 | 0.00 | 0.00 | 64 | 1008.1 |
| 20260902200353 | 96 | 185 | 3.0 | 11.0 | 0.00 | 0.00 | 0.00 | 64 | 1008.3 |
| 20260902195453 | 96 | 187 | 3.0 | 15.0 | 0.00 | 0.00 | 0.00 | 64 | 1008.3 |
| 20260902194553 | 96 | 206 | 1.0 | 9.0 | 0.00 | 0.00 | 0.00 | 65 | 1008.6 |
| 20260902193653 | 96 | 210 | 1.0 | 10.0 | 0.00 | 0.00 | 0.00 | 65 | 1008.6 |
| 20260902192753 | 95 | 227 | 1.0 | 11.0 | 0.00 | 0.00 | 0.00 | 66 | 1008.7 |
| 20260902191853 | 95 | 216 | 2.0 | 11.0 | 0.00 | 0.00 | 0.00 | 65 | 1008.8 |
| 20260902190053 | 95 | 233 | 1.0 | 7.0 | 0.00 | 0.00 | 0.00 | 67 | 1009.0 |
| 20260902185153 | 95 | 205 | 1.0 | 9.0 | 0.00 | 0.00 | 0.00 | 67 | 1009.0 |
| 20260902184253 | 95 | 230 | 1.0 | 10.0 | 0.00 | 0.00 | 0.00 | 66 | 1009.2 |
| 20260902183353 | 95 | 270 | 2.0 | 16.0 | 0.00 | 0.00 | 0.00 | 67 | 1009.6 |
| 20260902182453 | 95 | 260 | 1.0 | 9.0 | 0.00 | 0.00 | 0.00 | 68 | 1009.6 |
| 20260902181553 | 93 | 278 | 0.0 | 7.0 | 0.00 | 0.00 | 0.00 | 71 | 1009.9 |
| 20260902174853 | 91 | 236 | 2.0 | 10.0 | 0.00 | 0.00 | 0.00 | 73 | 1010.5 |
| 20260902173053 | 91 | 265 | 2.0 | 13.0 | 0.00 | 0.00 | 0.00 | 74 | 1010.7 |
| 20260902172153 | 90 | 272 | 2.0 | 11.0 | 0.00 | 0.00 | 0.00 | 75 | 1010.7 |
| 20260902171253 | 90 | 279 | 3.0 | 11.0 | 0.00 | 0.00 | 0.00 | 76 | 1010.8 |
| 20260902170353 | 90 | 249 | 4.0 | 11.0 | 0.00 | 0.00 | 0.00 | 76 | 1011.2 |
| 20260902164553 | 89 | 241 | 5.0 | 15.0 | 0.00 | 0.00 | 0.00 | 79 | 1011.2 |
| 20260902163653 | 88 | 263 | 4.0 | 11.0 | 0.00 | 0.00 | 0.00 | 82 | 1011.2 |
| 20260902162753 | 87 | 254 | 5.0 | 13.0 | 0.00 | 0.00 | 0.00 | 82 | 1011.2 |
| 20260902161853 | 87 | 250 | 4.0 | 13.0 | 0.00 | 0.00 | 0.00 | 83 | 1011.2 |
| 20260902160953 | 87 | 245 | 2.0 | 10.0 | 0.00 | 0.00 | 0.00 | 84 | 1011.2 |
| 20260902160053 | 86 | 264 | 4.0 | 14.0 | 0.00 | 0.00 | 0.00 | 85 | 1011.2 |
| 20260902155153 | 86 | 266 | 5.0 | 14.0 | 0.00 | 0.00 | 0.00 | 86 | 1011.2 |
| 20260902154253 | 85 | 266 | 6.0 | 14.0 | 0.00 | 0.00 | 0.00 | 87 | 1011.2 |
| 20260902153353 | 85 | 275 | 3.0 | 15.0 | 0.00 | 0.00 | 0.00 | 87 | 1011.1 |
| 20260902151553 | 85 | 258 | 3.0 | 11.0 | 0.00 | 0.00 | 0.00 | 89 | 1011.0 |
| 20260902150653 | 84 | 269 | 2.0 | 12.0 | 0.00 | 0.00 | 0.00 | 89 | 1011.0 |
| 20260902144853 | 84 | 262 | 3.0 | 10.0 | 0.00 | 0.00 | 0.00 | 90 | 1010.9 |
| 20260902143053 | 83 | 268 | 3.0 | 10.0 | 0.00 | 0.00 | 0.00 | 91 | 1010.8 |
| 20260902141252 | 83 | 265 | 4.0 | 11.0 | 0.00 | 0.00 | 0.00 | 91 | 1010.8 |
| 20260902140353 | 83 | 276 | 3.0 | 12.0 | 0.00 | 0.00 | 0.00 | 92 | 1010.7 |
| 20260902135453 | 83 | 274 | 0.0 | 6.0 | 0.00 | 0.00 | 0.00 | 92 | 1010.7 |
| 20260902134553 | 83 | 257 | 2.0 | 7.0 | 0.00 | 0.00 | 0.00 | 92 | 1010.8 |
| 20260902133653 | 82 | 257 | 3.0 | 9.0 | 0.00 | 0.00 | 0.00 | 92 | 1010.8 |
| 20260902132752 | 82 | 281 | 2.0 | 11.0 | 0.00 | 0.00 | 0.00 | 92 | 1010.7 |
| 20260902131853 | 82 | 270 | 1.0 | 11.0 | 0.00 | 0.00 | 0.00 | 92 | 1010.6 |
| 20260902130952 | 82 | 224 | 1.0 | 11.0 | 0.00 | 0.00 | 0.00 | 92 | 1010.6 |
| 20260902125152 | 82 | 250 | 1.0 | 9.0 | 0.00 | 0.00 | 0.00 | 93 | 1010.2 |
| 20260902124252 | 82 | 258 | 0.0 | 7.0 | 0.00 | 0.00 | 0.00 | 93 | 1010.1 |
| 20260902123353 | 82 | 250 | 0.0 | 7.0 | 0.00 | 0.00 | 0.00 | 93 | 1009.5 |
| 20260902122452 | 82 | 243 | 1.0 | 6.0 | 0.00 | 0.00 | 0.00 | 93 | 1009.5 |
| 20260902120652 | 82 | 229 | 1.0 | 8.0 | 0.00 | 0.00 | 0.00 | 93 | 1009.2 |
| 20260902113953 | 82 | 228 | 1.0 | 5.0 | 0.00 | 0.00 | 0.00 | 93 | 1009.1 |
| 20260902113052 | 82 | 251 | 2.0 | 11.0 | 0.00 | 0.00 | 0.00 | 93 | 1009.5 |
| 20260902112153 | 82 | 241 | 3.0 | 11.0 | 0.00 | 0.00 | 0.00 | 93 | 1009.5 |
| 20260902111253 | 82 | 248 | 2.0 | 12.0 | 0.00 | 0.00 | 0.00 | 93 | 1009.3 |
| 20260902110352 | 82 | 224 | 1.0 | 10.0 | 0.00 | 0.00 | 0.00 | 92 | 1009.5 |
| 20260902103652 | 82 | 234 | 0.0 | 6.0 | 0.00 | 0.00 | 0.00 | 92 | 1009.5 |
| 20260902102752 | 82 | 0 | 0.0 | 0.0 | 0.00 | 0.00 | 0.00 | 92 | 1009.3 |
| 20260902101852 | 82 | 0 | 0.0 | 0.0 | 0.00 | 0.00 | 0.00 | 92 | 1009.1 |
| 20260902100952 | 82 | 234 | 1.0 | 10.0 | 0.00 | 0.00 | 0.00 | 92 | 1009.1 |
| 20260902100052 | 82 | 237 | 1.0 | 10.0 | 0.00 | 0.00 | 0.00 | 91 | 1009.1 |
| 20260902095153 | 82 | 245 | 1.0 | 6.0 | 0.00 | 0.00 | 0.00 | 91 | 1009.1 |
| 20260902094253 | 82 | 233 | 2.0 | 9.0 | 0.00 | 0.00 | 0.00 | 91 | 1009.1 |
| 20260902093352 | 82 | 203 | 0.0 | 4.0 | 0.00 | 0.00 | 0.00 | 91 | 1009.1 |
| 20260902092453 | 82 | 246 | 1.0 | 9.0 | 0.00 | 0.00 | 0.00 | 91 | 1009.1 |
| 20260902091553 | 82 | 244 | 2.0 | 10.0 | 0.00 | 0.00 | 0.00 | 91 | 1009.1 |
| 20260902090653 | 82 | 229 | 2.0 | 10.0 | 0.00 | 0.00 | 0.00 | 91 | 1009.1 |
| 20260902085753 | 82 | 230 | 0.0 | 10.0 | 0.00 | 0.00 | 0.00 | 91 | 1009.1 |
| 20260902083052 | 82 | 224 | 1.0 | 11.0 | 0.00 | 0.00 | 0.00 | 90 | 1009.1 |
| 20260902082153 | 82 | 204 | 1.0 | 9.0 | 0.00 | 0.00 | 0.00 | 90 | 1009.1 |
| 20260902075453 | 82 | 227 | 1.0 | 7.0 | 0.00 | 0.00 | 0.00 | 90 | 1009.1 |
| 20260902074552 | 82 | 0 | 0.0 | 0.0 | 0.00 | 0.00 | 0.00 | 90 | 1009.3 |
| 20260902073653 | 82 | 225 | 0.0 | 5.0 | 0.00 | 0.00 | 0.00 | 90 | 1009.3 |
| 20260902071852 | 83 | 223 | 0.0 | 6.0 | 0.00 | 0.00 | 0.00 | 89 | 1009.2 |
| 20260902070053 | 83 | 231 | 2.0 | 13.0 | 0.00 | 0.00 | 0.00 | 89 | 1009.2 |
| 20260902064253 | 83 | 219 | 1.0 | 10.0 | 0.00 | 0.00 | 0.00 | 89 | 1009.1 |
| 20260902063353 | 83 | 226 | 1.0 | 10.0 | 0.00 | 0.00 | 0.00 | 88 | 1009.1 |
| 20260902062453 | 83 | 194 | 1.0 | 7.0 | 0.00 | 0.00 | 0.00 | 87 | 1009.1 |
| 20260902060652 | 82 | 239 | 1.0 | 10.0 | 0.00 | 0.00 | 0.00 | 85 | 1009.0 |